{"data":{"norad_id":64667,"epoch":"2026-05-25T03:10:36.889824Z","epoch_age_seconds":53684,"freshness":"FRESH","line1":"1 64667U 25139D   26145.13237141  .00016865  00000+0  57999-3 0  9996","line2":"2 64667  53.1576 132.2679 0001412 102.8358 257.2801 15.30214953 51984","mean_motion":15.30214953,"eccentricity":0.0001412,"inclination_deg":53.1576,"raan_deg":132.2679,"arg_perigee_deg":102.8358,"mean_anomaly_deg":257.2801,"bstar":0.00057999,"rev_number":5198,"period_min":94.104426125027,"perigee_km":474.20273581209,"apogee_km":476.13810982829,"semimajor_km":6853.3074228202,"source":"CELESTRAK","updated_at":"2026-05-25T13:38:20.501499Z"}}